This demonstration page uses our WeatherBlox Daily Observations layout. Learn more.

Left ArrowRight Arrow

39.29038, -76.61219

Hourly Observations for November 5, 2018

Temp ( °F °C ) Dew Point ( °F °C ) Humidity (%) Winds ( mph kmh ) Pressure ( in mb ) Visibility ( mi km ) Precip ( " mm )
12:54 am 00:54 undefined 52 11.1 45 7.2 77 77 undefined N/A 30.38 1029 N/A 0.00 0.00
1:54 am 01:54 undefined 52 11.1 45 7.2 77 77 undefined N/A 30.34 1028 N/A 0.00 0.00
2:54 am 02:54 undefined 52 11.1 45 7.2 77 77 undefined N/A 30.33 1027 N/A 0.00 0.00
3:54 am 03:54 undefined 52 11.1 46 7.8 80 80 undefined N/A 30.28 1026 N/A 0.00 0.00
4:54 am 04:54 undefined 53 11.7 47 8.3 80 80 undefined N/A 30.26 1025 N/A 0.00 0.00
5:54 am 05:54 undefined 52 11.1 48 8.9 86 86 undefined N/A 30.26 1025 N/A 0.07 1.78
6:54 am 06:54 undefined 52 11.1 49 9.4 89 89 undefined N/A 30.24 1024 N/A 0.10 2.54
7:54 am 07:54 undefined 53 11.7 50 10 89 89 undefined N/A 30.23 1024 N/A 0.12 3.05
8:54 am 08:54 undefined 54 12.2 52 11.1 93 93 undefined N/A 30.20 1023 N/A 0.04 1.02
9:54 am 09:54 undefined 56 13.3 53 11.7 90 90 undefined N/A 30.20 1023 N/A 0.07 1.78
10:54 am 10:54 undefined 56 13.3 53 11.7 90 90 undefined N/A 30.19 1022 N/A 0.24 6.10
11:54 am 11:54 undefined 56 13.3 53 11.7 90 90 undefined N/A 30.18 1022 N/A 0.23 5.84
12:54 pm 12:54 undefined 53 11.7 50 10 89 89 undefined N/A 30.12 1020 N/A 0.04 1.02
1:54 pm 13:54 undefined 54 12.2 50 10 87 87 undefined N/A 30.11 1020 N/A 0.00 0.00
2:54 pm 14:54 undefined 55 12.8 52 11.1 90 90 undefined N/A 30.10 1019 N/A 0.00 0.00
3:54 pm 15:54 undefined 55 12.8 52 11.1 90 90 undefined N/A 30.09 1019 N/A 0.01 0.25
4:54 pm 16:54 undefined 55 12.8 53 11.7 93 93 undefined N/A 30.09 1019 N/A 0.02 0.51
5:54 pm 17:54 undefined 56 13.3 54 12.2 93 93 undefined N/A 30.09 1019 N/A 0.01 0.25
6:54 pm 18:54 undefined 56 13.3 54 12.2 93 93 undefined N/A 30.10 1019 N/A 0.00 0.00
7:54 pm 19:54 undefined 56 13.3 53 11.7 90 90 undefined N/A 30.09 1019 N/A 0.01 0.25
8:54 pm 20:54 undefined 55 12.8 53 11.7 93 93 undefined N/A 30.10 1019 N/A 0.00 0.00
9:54 pm 21:54 undefined 55 12.8 52 11.1 90 90 undefined N/A 30.09 1019 N/A 0.00 0.00
10:54 pm 22:54 undefined 55 12.8 52 11.1 90 90 undefined N/A 30.09 1019 N/A 0.00 0.00
11:54 pm 23:54 undefined 54 12.2 52 11.1 93 93 undefined N/A 30.07 1018 N/A 0.00 0.00

Powered by AerisWeather